Volver al catálogo

STARLINK-31936

ActivoComunicacionesVLEO
NORAD 59875·PAYLOAD·🇺🇸 United States

Lanzado May 24, 2024 desde Cape Canaveral Space Force Station

Loading…

Próximos Pases (próximas 24 horas)

TLE

ActualizadoSource: CelesTrak SupGP

Época: Sep 14, 2026, 22:15 UTC

1 59875C 24098T   26257.92756944  .00026128  00000+0  94651-3 0  2578
2 59875  42.9990 256.9475 0001131 268.8163 258.4936 15.27559743    13

Sigue STARLINK-31936 en tiempo real con AllMySat

Download on the App Store